Change the Weather History Date:

Saturday, June 7, 2014

  Actual Average Record
Temperature  
Mean Temperature 58 °F -  
Max Temperature 75 °F 59 °F 75 °F (2014)
Min Temperature 45 °F 45 °F 37 °F (1999)
Degree Days  
Heating Degree Days 6    
Growing Degree Days 8 (Base 50)    
Moisture  
Dew Point 47 °F    
Average Humidity 72    
Maximum Humidity 93    
Minimum Humidity 43    
Precipitation  
Precipitation 0.00 in - - ()
Sea Level Pressure  
Sea Level Pressure 29.94 in    
Wind  
Wind Speed 6 mph (WSW)    
Max Wind Speed 20 mph    
Max Gust Speed 24 mph    
Visibility 7 miles    
Events      
Averages and records for this station are not official NWS values.
T = Trace of Precipitation, MM = Missing Value Source: NWS Daily Summary

Daily Weather History Graph

Daily Weather History Graph

Search for Another Location

Airport or City:

Trip Planner

Search our weather history database for the weather conditions in past years. The results will help you decide how hot, cold, wet, or windy it might be!

Date:

Astronomy

Jun. 07, 2014 Rise Set
Actual Time 5:44 AM PDT 8:46 PM PDT
Civil Twilight 5:11 AM PDT 9:19 PM PDT
Nautical Twilight 4:29 AM PDT 10:02 PM PDT
Astronomical Twilight 3:39 AM PDT 10:51 PM PDT
Moon 3:07 PM PDT (6/7) 2:11 AM PDT (6/7)
Length of Visible Light 16h 08m
Length of Day
15h 01m
Waxing Gibbous, 69% of the Moon is Illuminated
Jun 7
Waxing Gibbous
Jun 12
Full
Jun 19
Last Quarter
Jun 27
New
Jul 5
First Quarter

Hourly Weather History & Observations

Time (PDT) Temp. Windchill Dew Point Humidity Pressure Visibility Wind Dir Wind Speed Gust Speed Precip Events Conditions
12:53 AM 48.0 °F - 44.1 °F 86% 29.93 in 8.0 mi East 3.5 mph - N/A   Clear
1:53 AM 48.0 °F - 44.1 °F 86% 29.92 in 8.0 mi SE 4.6 mph - N/A   Clear
2:53 AM 46.0 °F - 43.0 °F 89% 29.93 in 7.0 mi Calm Calm - N/A   Clear
3:53 AM 46.0 °F - 42.1 °F 86% 29.93 in 8.0 mi Calm Calm - N/A   Clear
4:53 AM 45.0 °F 43.5 °F 42.1 °F 90% 29.93 in 7.0 mi East 3.5 mph - N/A   Clear
6:53 AM 48.0 °F - 46.0 °F 93% 29.94 in 6.0 mi Calm Calm - N/A   Clear
7:53 AM 52.0 °F - 46.9 °F 83% 29.95 in 6.0 mi Calm Calm - N/A   Haze
8:21 AM 52.0 °F - 48.0 °F 86% 29.94 in 4.0 mi WSW 4.6 mph - N/A   Mostly Cloudy
8:32 AM 53.1 °F - 48.0 °F 83% 29.94 in 3.0 mi WSW 4.6 mph - N/A   Haze
8:53 AM 53.1 °F - 48.9 °F 86% 29.96 in 4.0 mi Variable 3.5 mph - N/A   Overcast
9:53 AM 55.9 °F - 48.9 °F 77% 29.96 in 4.0 mi WSW 4.6 mph - N/A   Haze
10:53 AM 57.9 °F - 48.9 °F 72% 29.95 in 5.0 mi Variable 3.5 mph - N/A   Haze
11:53 AM 62.1 °F - 50.0 °F 65% 29.94 in 7.0 mi South 6.9 mph - N/A   Clear
12:53 PM 66.9 °F - 48.0 °F 51% 29.93 in 9.0 mi NW 6.9 mph - N/A   Clear
1:53 PM 72.0 °F - 48.0 °F 43% 29.92 in 10.0 mi NW 18.4 mph - N/A   Clear
2:53 PM 72.0 °F - 48.9 °F 44% 29.92 in 10.0 mi NNW 18.4 mph - N/A   Clear
3:53 PM 71.1 °F - 48.9 °F 45% 29.92 in 10.0 mi NW 16.1 mph - N/A   Clear
4:53 PM 64.9 °F - 48.9 °F 56% 29.91 in 8.0 mi NW 19.6 mph 24.2 mph N/A   Clear
5:53 PM 64.9 °F - 48.9 °F 56% 29.91 in 9.0 mi NW 17.3 mph - N/A   Clear
6:53 PM 64.0 °F - 48.9 °F 58% 29.92 in 9.0 mi NW 16.1 mph - N/A   Clear
7:53 PM 62.1 °F - 48.9 °F 62% 29.93 in 8.0 mi South 9.2 mph - N/A   Clear
8:53 PM 57.0 °F - 48.0 °F 72% 29.94 in 9.0 mi South 8.1 mph - N/A   Clear
9:53 PM 55.0 °F - 48.0 °F 77% 29.96 in 8.0 mi South 11.5 mph - N/A   Clear
10:53 PM 54.0 °F - 48.0 °F 80% 29.97 in 10.0 mi ESE 3.5 mph - N/A   Clear
11:53 PM 51.1 °F - 46.0 °F 83% 29.97 in 9.0 mi Calm Calm - N/A   Clear